{"data":{"norad_id":49769,"intl_designator":"2021-115AX","name":"STARLINK-3208","alt_names":[],"object_type":"PAYLOAD","status":"ACTIVE","operator":null,"country":"US","launch_date":"2021-12-02","launch_site_code":"AFETR","launch_vehicle":null,"mission":null,"orbit_class":"UNKNOWN","rcs_meters":null,"size_class":null,"mass_kg":null,"dimensions":null,"purposes":["comms"],"wikipedia_slug":null,"has_3d_model":false,"image_url":null,"decayed_at":null,"tle_current":{"epoch":"2026-09-19T04:49:05.664000Z","epoch_age_seconds":157258,"freshness":"FRESH","line1":"1 49769U 21115AX  26262.20076000  .00000261  00000+0  20167-4 0  9996","line2":"2 49769  53.1594 339.8447 0001499  95.0697 265.0475 15.31700553265036","mean_motion":15.31700553,"eccentricity":0.0001499,"inclination_deg":53.1594,"raan_deg":339.8447,"arg_perigee_deg":95.0697,"mean_anomaly_deg":265.0475,"bstar":2.0167e-5,"rev_number":26503,"period_min":94.013154018885,"perigee_km":469.71170034744,"apogee_km":471.7649931764,"semimajor_km":6848.8753467619,"source":"CELESTRAK","updated_at":"2026-09-20T09:00:39.412348Z"}}}